星链-6150 (STARLINK-6150 )

导读

STARLINK-6150是美国太空探索技术公司(SpaceX)星链(Starlink)卫星互联网项目的组网卫星,于2023年6月23日发射升空,作为星链低轨星座的组成部分,它主要服务于全球覆盖的高速卫星互联网,为地面用户提供远程通信、网络接入等服务,助力星链完成全球卫星网络的组网部署。

Basic Information
目录编号:
57119
目录名称:
STARLINK-6150
国际标识:
2023-090U
轨道中心:
EARTH
卫星名称:
星链-6150
卫星全名:
星链-6150 (STARLINK-6150 )
卫星状态:
在轨 (已飞行1169 天)
发射日期:
2023-06-23 UTC
国别 :
美国 (US)
星等 :
--
Orbit Information
数据来源 国际轨道数据
星历时间: 2026-09-04T00:42:27+0800
23小时前
查看轨道信息
半长轴: 6861.176km
偏心率: 0.0001651
轨道倾角: 43.003°
近地点辐角 279.187°
升交点赤经 356.480°
平近点角 80.879°
近地点: 481.906km
远地点: 484.172km
周期: 94.267分钟
每日圈数: 15.275834
Detailed Information
固有亮度:
5
最大亮度:
2.4
卫星平台:
Starlink v1.5
覆盖范围:
全球
运营商:
太空探索技术公司
运营商所在国:
美国
制造商(研发单位):
太空探索技术公司
制造商所在国:
美国
使用方式:
暂无
Satellite Introduction
星链(Starlink)计划是由太空探索技术公司(SpaceX)提出的一个巨型低轨卫星互联网星座项目,计划在2019年至2024年间在太空搭建由约1.2万颗卫星组成的“星链”网络,其中1584颗将部署在地球上空550千米处的近地轨道,并从2020年开始工作。该卫星仍在工作。
2D Orbit Map
3D Orbit Map
Orbit Altitude Analysis Chart
Orbit Inclination Analysis Chart
Orbit Comprehensive Analysis Chart
View Comprehensive Chart
Conjunction Data List
Event ID Objects TCA Miss Dist (km) Collision Risk Probability Collision Risk Index (CRI) Action
CDM_260904-160505-711906-398821
OBJECT G (63988)
2026-09-04T
16:05:53+0000
0.822 km
远距离
3.300583E-5 中风险 0.65
CDM_260830-094805-711906-453122
OBJECT D (64531)
2026-08-30T
09:48:21+0000
2.948 km
极远距离
9.228544E-7 极低风险 0.34
CDM_260904-133405-711906-436821
2026-09-04T
13:34:32+0000
2.944 km
极远距离
8.372304E-7 极低风险 0.33